Tracking 23645 objects as of 22-Sep-2021
HD Live streaming from Space Station
objects crossing your sky now

STARLINK-1210

Track STARLINK-1210 now!
10-day predictions
STARLINK-1210 is classified as:


NORAD ID: 45207
Int'l Code: 2020-012AF
Perigee: 553.0 km
Apogee: 555.8 km
Inclination: 53.1 °
Period: 95.6 minutes
Semi major axis: 6925 km
RCS: Unknown
Launch date: February 17, 2020
Source: United States (US)
Launch site: AIR FORCE EASTERN TEST RANGE (AFETR)
aabbcc
Your satellite tracking list
Your tracking list is empty




NASA's NSSDC Master Catalog

Two Line Element Set (TLE):
1 45207U 20012AF  21264.39558436 -.00000487  00000-0 -13773-4 0  9997
2 45207  53.0539 145.2924 0002066  73.8361 286.2855 15.06389879 89395
Source of the keplerian elements: AFSPC